Abingdon, VA

9:16 AM EST on November 24, 2017 (GMT -0500)
Virginia Highlands

Weather History for KVJI - January, 2013

Change the Weather History Date:

Tuesday, January 15, 2013

  Actual Average (KTRI) Record (KTRI)
Temperature  
Mean Temperature 44 °F -  
Max Temperature 48 °F 42 °F 72 °F (1950)
Min Temperature 40 °F 24 °F -4 °F (1964)
Degree Days  
Heating Degree Days 21    
Moisture  
Dew Point 46 °F    
Average Humidity 100    
Maximum Humidity 100    
Minimum Humidity 100    
Precipitation  
Precipitation 1.85 in - - ()
Sea Level Pressure  
Sea Level Pressure 30.07 in    
Wind  
Wind Speed 6 mph (ENE)    
Max Wind Speed 16 mph    
Max Gust Speed 20 mph    
Visibility 8 miles    
Events Rain    
Averages and records for this station are not official NWS values.
T = Trace of Precipitation, MM = Missing Value Source: NWS Daily Summary

Daily Weather History Graph

Daily Weather History Graph

Search for Another Location

Airport or City:

Trip Planner

Search our weather history database for the weather conditions in past years. The results will help you decide how hot, cold, wet, or windy it might be!

Date:

Astronomy

Jan. 15, 2013 Rise Set
Actual Time 7:39 AM EST 5:36 PM EST
Civil Twilight 7:11 AM EST 6:04 PM EST
Nautical Twilight 6:39 AM EST 6:36 PM EST
Astronomical Twilight 6:08 AM EST 7:07 PM EST
Moon 9:52 AM EST (1/15) 10:15 PM EST (1/15)
Length of Visible Light 10h 52m
Length of Day
9h 56m
Waxing Crescent, 19% of the Moon is Illuminated
Jan 15
Waxing Crescent
Jan 18
First Quarter
Jan 26
Full
Feb 3
Last Quarter
Feb 10
New

Hourly Weather History & Observations

Time (EST) Temp. Windchill Dew Point Humidity Pressure Visibility Wind Dir Wind Speed Gust Speed Precip Events Conditions
12:15 AM 40.6 °F 37.5 °F 40.6 °F 100% 30.18 in 10.0 mi ENE 4.6 mph - 0.01 in Rain Light Rain
12:35 AM 41.2 °F 36.6 °F 41.2 °F 100% 30.17 in 10.0 mi East 6.9 mph - 0.02 in Rain Light Rain
1:15 AM 41.4 °F 36.2 °F 41.4 °F 100% 30.16 in 10.0 mi ENE 8.1 mph - N/A   Light Drizzle
1:35 AM 41.7 °F 38.0 °F 41.7 °F 100% 30.15 in 10.0 mi ENE 5.8 mph - 0.01 in Rain Light Rain
1:55 AM 41.9 °F 37.5 °F 41.9 °F 100% 30.15 in 10.0 mi ENE 6.9 mph - 0.02 in   Drizzle
2:15 AM 41.9 °F 36.9 °F 41.9 °F 100% 30.13 in 10.0 mi East 8.1 mph - N/A   Light Drizzle
3:15 AM 42.8 °F 38.0 °F 42.8 °F 100% 30.10 in 10.0 mi ENE 8.1 mph - 0.01 in Rain Rain
3:55 AM 42.8 °F 38.6 °F 42.8 °F 100% 30.09 in 10.0 mi ENE 6.9 mph - 0.04 in Rain Rain
4:15 AM 43.7 °F 40.3 °F 43.7 °F 100% 30.09 in 10.0 mi ENE 5.8 mph - 0.01 in Rain Rain
4:35 AM 43.9 °F 42.3 °F 43.9 °F 100% 30.09 in 7.0 mi ENE 3.5 mph - 0.05 in Rain Rain
4:55 AM 44.6 °F 41.4 °F 44.6 °F 100% 30.08 in 10.0 mi ENE 5.8 mph - 0.08 in Rain Rain
5:15 AM 45.0 °F 43.5 °F 45.0 °F 100% 30.08 in 10.0 mi NE 3.5 mph - 0.03 in Rain Rain
5:35 AM 45.5 °F - 45.5 °F 100% 30.09 in 3.0 mi Calm Calm - 0.11 in Rain Heavy Rain
5:55 AM 45.7 °F 43.4 °F 45.7 °F 100% 30.09 in 5.0 mi ENE 4.6 mph - 0.21 in Rain Rain
6:15 AM 46.4 °F 44.3 °F 46.4 °F 100% 30.11 in 10.0 mi NNW 4.6 mph - 0.05 in Rain Rain
6:35 AM 46.4 °F - 46.4 °F 100% 30.11 in 4.0 mi Calm Calm - 0.13 in Rain Rain
6:55 AM 45.5 °F 42.5 °F 45.5 °F 100% 30.11 in 7.0 mi East 5.8 mph - 0.18 in Rain Rain
7:15 AM 45.5 °F 43.2 °F 45.5 °F 100% 30.12 in 7.0 mi North 4.6 mph - 0.03 in Rain Rain
7:35 AM 45.0 °F 43.5 °F 45.0 °F 100% 30.11 in 10.0 mi NNE 3.5 mph - 0.06 in Rain Rain
7:55 AM 44.6 °F 41.4 °F 44.6 °F 100% 30.13 in 7.0 mi North 5.8 mph - 0.09 in Rain Rain
8:15 AM 43.7 °F 42.1 °F 43.7 °F 100% 30.14 in 7.0 mi East 3.5 mph - 0.04 in Rain Rain
8:35 AM 44.6 °F 40.7 °F 44.6 °F 100% 30.16 in 10.0 mi North 6.9 mph - 0.06 in Rain Light Rain
8:55 AM 42.8 °F 41.1 °F 42.8 °F 100% 30.15 in 7.0 mi East 3.5 mph - 0.08 in Rain Rain
9:15 AM 43.3 °F 41.7 °F 43.3 °F 100% 30.16 in 10.0 mi North 3.5 mph - 0.02 in Rain Light Rain
9:35 AM 43.5 °F 41.9 °F 43.5 °F 100% 30.16 in 4.0 mi SSW 3.5 mph - 0.06 in Rain Rain
9:55 AM 43.7 °F - 43.7 °F 100% 30.16 in 5.0 mi Calm Calm - 0.08 in Rain Light Rain
10:15 AM 44.8 °F - 44.8 °F 100% 30.15 in 7.0 mi Calm Calm - 0.02 in Rain Light Rain
10:35 AM 45.1 °F 43.7 °F 45.1 °F 100% 30.15 in 10.0 mi NE 3.5 mph - 0.04 in Rain Rain
10:55 AM 44.2 °F 39.7 °F 44.2 °F 100% 30.16 in 10.0 mi North 8.1 mph - 0.05 in   Drizzle
11:15 AM 42.6 °F - 42.6 °F 100% 30.15 in 2.5 mi Calm Calm - 0.01 in Rain Light Rain
11:35 AM 43.7 °F - 43.7 °F 100% 30.14 in 2.5 mi Calm Calm - 0.02 in Rain Rain
11:55 AM 44.6 °F - 44.6 °F 100% 30.12 in 4.0 mi Calm Calm - 0.03 in   Light Drizzle
12:15 PM 45.0 °F 41.8 °F 45.0 °F 100% 30.11 in 7.0 mi East 5.8 mph - 0.01 in Rain Light Rain
12:35 PM 45.1 °F 42.8 °F 45.1 °F 100% 30.10 in 7.0 mi ENE 4.6 mph - 0.01 in   Light Drizzle
12:55 PM 45.5 °F 44.2 °F 45.5 °F 100% 30.10 in 5.0 mi East 3.5 mph - 0.05 in Rain Rain
1:15 PM 45.9 °F 44.6 °F 45.9 °F 100% 30.08 in 7.0 mi NE 3.5 mph - 0.03 in Rain Rain
1:35 PM 46.8 °F - 46.8 °F 100% 30.07 in 10.0 mi East 5.8 mph - 0.04 in Rain Light Rain
2:15 PM 47.5 °F - 47.5 °F 100% 30.05 in 10.0 mi East 9.2 mph - 0.01 in Rain Rain
2:35 PM 48.6 °F - 48.6 °F 100% 30.03 in 10.0 mi East 12.7 mph - 0.01 in Rain Light Rain
2:55 PM 48.7 °F - 48.7 °F 100% 30.03 in 10.0 mi East 16.1 mph 19.6 mph 0.02 in Rain Light Rain
3:15 PM 48.6 °F - 48.6 °F 100% 30.03 in 7.0 mi East 12.7 mph 17.3 mph 0.04 in Rain Rain
3:35 PM 48.6 °F - 48.6 °F 100% 30.02 in 7.0 mi East 12.7 mph - 0.09 in Rain Light Rain
3:55 PM 48.4 °F - 48.4 °F 100% 30.02 in 7.0 mi East 12.7 mph - 0.13 in Rain Rain
4:15 PM 48.4 °F - 48.4 °F 100% 30.03 in 7.0 mi East 11.5 mph - 0.04 in Rain Rain
4:35 PM 48.4 °F - 48.4 °F 100% 30.03 in 10.0 mi East 11.5 mph - 0.07 in Rain Light Rain
4:55 PM 48.4 °F - 48.4 °F 100% 30.02 in 10.0 mi East 13.8 mph - 0.08 in Rain Light Rain
5:15 PM 48.2 °F - 48.2 °F 100% 30.00 in 10.0 mi East 13.8 mph - 0.04 in Rain Rain
5:35 PM 48.4 °F - 48.4 °F 100% 30.02 in 7.0 mi East 8.1 mph - 0.07 in Rain Rain
5:55 PM 48.2 °F - 48.2 °F 100% 30.05 in 7.0 mi ENE 3.5 mph 9.2 mph 0.13 in Rain Rain
6:15 PM 48.2 °F - 48.2 °F 100% 30.05 in 4.0 mi ESE 10.4 mph - 0.12 in Rain Heavy Rain
6:35 PM 47.8 °F - 47.8 °F 100% 30.04 in 7.0 mi East 15.0 mph - 0.21 in Rain Rain
6:55 PM 47.7 °F - 47.7 °F 100% 30.04 in 10.0 mi East 11.5 mph - 0.24 in Rain Rain
7:15 PM 47.7 °F - 47.7 °F 100% 30.03 in 7.0 mi East 11.5 mph - 0.04 in Rain Rain
7:35 PM 47.7 °F - 47.7 °F 100% 30.02 in 10.0 mi East 11.5 mph - 0.07 in Rain Light Rain
8:15 PM 47.1 °F - 47.1 °F 100% 29.99 in 10.0 mi East 15.0 mph - 0.01 in Rain Rain
8:35 PM 47.3 °F - 47.3 °F 100% 29.99 in 7.0 mi East 10.4 mph - 0.03 in Rain Rain
9:15 PM 47.5 °F - 47.5 °F 100% 29.96 in 10.0 mi East 8.1 mph - 0.01 in   Drizzle
9:35 PM 47.5 °F - 47.5 °F 100% 29.96 in 7.0 mi ENE 3.5 mph - 0.02 in   Drizzle
9:55 PM 47.3 °F - 47.3 °F 100% 29.96 in 7.0 mi East 4.6 mph - 0.03 in   Drizzle
10:15 PM 47.3 °F - 47.3 °F 100% 29.96 in 7.0 mi NE 5.8 mph - 0.01 in Rain Rain
10:35 PM 46.9 °F - 46.9 °F 100% 29.97 in 5.0 mi ENE 5.8 mph - 0.06 in Rain Rain
10:55 PM 46.9 °F - 46.9 °F 100% 29.97 in 5.0 mi ENE 4.6 mph - 0.08 in   Heavy Drizzle
11:15 PM 47.1 °F - 47.1 °F 100% 29.97 in 4.0 mi East 4.6 mph - 0.02 in Rain Rain
11:35 PM 47.3 °F - 47.3 °F 100% 29.96 in 5.0 mi East 3.5 mph - 0.05 in   Heavy Drizzle
11:55 PM 47.3 °F - 47.3 °F 100% 29.97 in 5.0 mi Calm Calm - 0.09 in Rain Rain